Weather in Memphis

United States     35°08′53″N   90°02′35″W
temp.,
°C
wind,
m/s
gust,
m/s
humid.,
%
clouds,
%
prec.,
mm/h
press.,
hPa
HPBL,
m
16 may, sun
sun1601:00+18s367599 0.0 1019158
04:00+17ssw3107620 0.0 1019270
07:00+17s398339 0.0 1021317
10:00+21sw4767100 0.0 1022567
13:00+27ssw464859 0.0 10201861
16:00+26s5751100 0.0 10171333
19:00+24ssw3659100 0.0 1017482
22:00+20se3673100 0.0 1018169
17 may, mon
mon1701:00+20sse4117156 0.0 1017300
04:00+19s51370100 0.0 1016454
07:00+19s4118698 0.4 1018528
10:00+18s5129091 0.3 1018568
13:00+20sse51181100 0.3 1017757
16:00+23s586667 0.1 10161059
19:00+22sse4972100 0.1 1016799
22:00+18sse41195100 4.4 1016598
18 may, tue
tue1801:00+18sse61496100 34.6 10151049
04:00+18s51496100 3.6 1015652
07:00+18s41196100 5.2 1017544
10:00+19sse41195100 0.9 1018557
13:00+21s4988100 1.0 1018596
16:00+25sse5772100 0.1 10161072
19:00+23se31083100 1.1 1016376
22:00+21se51581100 0.3 1016497
19 may, wed
wed1901:00+20sse4138382 0.3 1016448
04:00+19sse4129098 0.2 1017481
07:00+19se5138892 0.3 1019629
10:00+24sse7146411 0.0 10191174
13:00+28sse6105262 0.0 10191889
16:00+27sse4856100 0.0 10181056
19:00+25se5106247 0.0 1018708
22:00+24sse4136321 0.0 1019661
20 may, thu
thu2001:00+21se41271100 0.0 1019421
04:00+19se387588 0.0 1020204
07:00+19se41175100 0.0 1022339
10:00+25sse586053 0.0 1023783
13:00+28sse465111 0.0 10231705
16:00+26ese376192 0.0 1021498
19:00+26se2661100 0.0 1021203
22:00+23ese387327 0.0 1023214